owner,sensor,date,latitude,longitude,vertical_datum,wind_speed,wind_to_direction,wind_speed_of_gust,qcFlag 
COMPS,ioos:station:USF.COMPS:C10:1,2019-09-01T00:35:00,27.1690,-82.9260,3.0,6.32,60.21,7.83,'11111222,11111222,11111222' 
COMPS,ioos:station:USF.COMPS:C10:1,2019-09-01T01:35:00,27.1690,-82.9260,3.0,6.58,72.71,7.98,'11111222,11111222,11111222' 
COMPS,ioos:station:USF.COMPS:C10:1,2019-09-01T02:35:00,27.1690,-82.9260,3.0,9.06,93.05,11.25,'11111222,11111222,11111222' 
COMPS,ioos:station:USF.COMPS:C10:1,2019-09-01T04:35:00,27.1690,-82.9260,3.0,8.55,94.65,10.63,'11111222,11111222,11111222' 
COMPS,ioos:station:USF.COMPS:C10:1,2019-09-01T05:35:00,27.1690,-82.9260,3.0,7.84,96.1,9.94,'11111222,11111222,11111222' 
COMPS,ioos:station:USF.COMPS:C10:1,2019-09-01T08:35:00,27.1690,-82.9260,3.0,7.01,94.36,8.67,'11111222,11111222,11111222' 
COMPS,ioos:station:USF.COMPS:C10:1,2019-09-01T09:35:00,27.1690,-82.9260,3.0,6.39,90.33,8.28,'11111222,11111222,11111222' 
COMPS,ioos:station:USF.COMPS:C10:1,2019-09-01T13:35:00,27.1690,-82.9260,3.0,6.12,79.43,7.54,'11111222,11111222,11111222' 
COMPS,ioos:station:USF.COMPS:C10:1,2019-09-01T14:35:00,27.1690,-82.9260,3.0,5.15,86.86,6.59,'11111222,11111222,11111222' 
COMPS,ioos:station:USF.COMPS:C10:1,2019-09-01T15:35:00,27.1690,-82.9260,3.0,4.82,80.03,6.03,'11111222,11111222,11111222' 
COMPS,ioos:station:USF.COMPS:C10:1,2019-09-01T16:35:00,27.1690,-82.9260,3.0,3.79,68.47,5.0,'11111222,11111222,11111222' 
COMPS,ioos:station:USF.COMPS:C10:1,2019-09-01T17:35:00,27.1690,-82.9260,3.0,2.3,69.9,3.39,'11111222,11111222,11111222' 
COMPS,ioos:station:USF.COMPS:C10:1,2019-09-01T18:35:00,27.1690,-82.9260,3.0,1.65,6.52,2.64,'11111222,11111222,11111222' 
COMPS,ioos:station:USF.COMPS:C10:1,2019-09-01T19:35:00,27.1690,-82.9260,3.0,2.82,321.53,3.69,'11111222,11111222,11111222' 
COMPS,ioos:station:USF.COMPS:C10:1,2019-09-01T20:35:00,27.1690,-82.9260,3.0,4.59,318.81,5.62,'11111222,11111222,11111222' 
COMPS,ioos:station:USF.COMPS:C10:1,2019-09-01T21:35:00,27.1690,-82.9260,3.0,9.1,357.87,11.63,'11111222,11111222,11111222' 
COMPS,ioos:station:USF.COMPS:C10:1,2019-09-01T22:35:00,27.1690,-82.9260,3.0,7.08,49.83,9.33,'11111222,11111222,11111222' 
COMPS,ioos:station:USF.COMPS:C10:1,2019-09-02T03:35:00,27.1690,-82.9260,3.0,6.31,67.27,7.94,'11111222,11111222,11111222' 
COMPS,ioos:station:USF.COMPS:C10:1,2019-09-02T08:35:00,27.1690,-82.9260,3.0,7.23,54.45,8.65,'11111222,11111222,11111222' 
COMPS,ioos:station:USF.COMPS:C10:1,2019-09-02T12:35:00,27.1690,-82.9260,3.0,5.6,20.28,7.27,'11111222,11111222,11111222' 
COMPS,ioos:station:USF.COMPS:C10:1,2019-09-02T15:35:00,27.1690,-82.9260,3.0,6.41,358.4,7.63,'11111222,11111222,11111222' 
COMPS,ioos:station:USF.COMPS:C10:1,2019-09-02T16:35:00,27.1690,-82.9260,3.0,6.88,358.77,8.96,'11111222,11111222,11111222' 
COMPS,ioos:station:USF.COMPS:C10:1,2019-09-02T17:35:00,27.1690,-82.9260,3.0,7.2,337.74,9.0,'11111222,11111222,11111222' 
COMPS,ioos:station:USF.COMPS:C10:1,2019-09-02T19:35:00,27.1690,-82.9260,3.0,9.96,3.71,11.82,'11111222,11111222,11111222' 
COMPS,ioos:station:USF.COMPS:C10:1,2019-09-02T20:35:00,27.1690,-82.9260,3.0,8.59,4.34,10.88,'11111222,11111222,11111222' 
COMPS,ioos:station:USF.COMPS:C10:1,2019-09-02T21:35:00,27.1690,-82.9260,3.0,9.23,356.88,11.7,'11111222,11111222,11111222' 
COMPS,ioos:station:USF.COMPS:C10:1,2019-09-02T23:35:00,27.1690,-82.9260,3.0,9.22,356.17,10.96,'11111222,11111222,11111222' 
COMPS,ioos:station:USF.COMPS:C10:1,2019-09-03T01:35:00,27.1690,-82.9260,3.0,8.21,18.27,10.22,'11111222,11111222,11111222' 
COMPS,ioos:station:USF.COMPS:C10:1,2019-09-03T03:35:00,27.1690,-82.9260,3.0,9.17,25.28,11.72,'11111222,11111222,11111222' 
COMPS,ioos:station:USF.COMPS:C10:1,2019-09-03T04:35:00,27.1690,-82.9260,3.0,9.33,25.29,11.68,'11111222,11111222,11111222' 
COMPS,ioos:station:USF.COMPS:C10:1,2019-09-03T06:35:00,27.1690,-82.9260,3.0,8.18,25.74,10.13,'11111222,11111222,11111222' 
COMPS,ioos:station:USF.COMPS:C10:1,2019-09-03T08:35:00,27.1690,-82.9260,3.0,7.74,24.09,9.7,'11111222,11111222,11111222' 
COMPS,ioos:station:USF.COMPS:C10:1,2019-09-03T12:35:00,27.1690,-82.9260,3.0,6.32,20.11,7.96,'11111222,11111222,11111222' 
COMPS,ioos:station:USF.COMPS:C10:1,2019-09-03T13:35:00,27.1690,-82.9260,3.0,6.13,14.89,7.43,'11111222,11111222,11111222' 
COMPS,ioos:station:USF.COMPS:C10:1,2019-09-03T14:35:00,27.1690,-82.9260,3.0,6.62,1.71,8.29,'11111222,11111222,11111222' 
COMPS,ioos:station:USF.COMPS:C10:1,2019-09-03T15:35:00,27.1690,-82.9260,3.0,6.11,9.25,7.87,'11111222,11111222,11111222' 
COMPS,ioos:station:USF.COMPS:C10:1,2019-09-03T17:35:00,27.1690,-82.9260,3.0,6.08,340.46,7.41,'11111222,11111222,11111222' 
COMPS,ioos:station:USF.COMPS:C10:1,2019-09-03T18:35:00,27.1690,-82.9260,3.0,7.7,337.27,9.1,'11111222,11111222,11111222' 
COMPS,ioos:station:USF.COMPS:C10:1,2019-09-03T19:35:00,27.1690,-82.9260,3.0,8.69,354.02,10.38,'11111222,11111222,11111222' 
COMPS,ioos:station:USF.COMPS:C10:1,2019-09-03T20:35:00,27.1690,-82.9260,3.0,9.36,346.93,11.51,'11111222,11111222,11111222' 
COMPS,ioos:station:USF.COMPS:C10:1,2019-09-03T21:35:00,27.1690,-82.9260,3.0,8.78,352.56,10.57,'11111222,11111222,11111222' 
COMPS,ioos:station:USF.COMPS:C10:1,2019-09-03T22:35:00,27.1690,-82.9260,3.0,10.28,10.12,12.11,'11111222,11111222,11111222' 
COMPS,ioos:station:USF.COMPS:C10:1,2019-09-03T23:35:00,27.1690,-82.9260,3.0,8.33,12.84,10.66,'11111222,11111222,11111222' 
COMPS,ioos:station:USF.COMPS:C10:1,2019-09-04T00:35:00,27.1690,-82.9260,3.0,8.72,12.34,10.31,'11111222,11111222,11111222' 
COMPS,ioos:station:USF.COMPS:C10:1,2019-09-04T02:35:00,27.1690,-82.9260,3.0,7.89,0.02,9.34,'11111222,11111222,11111222' 
COMPS,ioos:station:USF.COMPS:C10:1,2019-09-04T03:35:00,27.1690,-82.9260,3.0,7.47,345.51,8.81,'11111222,11111222,11111222' 
COMPS,ioos:station:USF.COMPS:C10:1,2019-09-04T04:35:00,27.1690,-82.9260,3.0,7.97,338.58,10.07,'11111222,11111222,11111222' 
COMPS,ioos:station:USF.COMPS:C10:1,2019-09-04T05:35:00,27.1690,-82.9260,3.0,7.41,343.5,8.92,'11111222,11111222,11111222' 
COMPS,ioos:station:USF.COMPS:C10:1,2019-09-04T06:35:00,27.1690,-82.9260,3.0,8.24,334.96,9.64,'11111222,11111222,11111222' 
COMPS,ioos:station:USF.COMPS:C10:1,2019-09-04T07:35:00,27.1690,-82.9260,3.0,7.99,329.7,9.53,'11111222,11111222,11111222' 
COMPS,ioos:station:USF.COMPS:C10:1,2019-09-04T08:35:00,27.1690,-82.9260,3.0,8.07,327.92,9.41,'11111222,11111222,11111222' 
COMPS,ioos:station:USF.COMPS:C10:1,2019-09-04T09:35:00,27.1690,-82.9260,3.0,8.2,324.49,9.92,'11111222,11111222,11111222' 
COMPS,ioos:station:USF.COMPS:C10:1,2019-09-04T10:35:00,27.1690,-82.9260,3.0,8.27,311.38,9.86,'11111222,11111222,11111222' 
COMPS,ioos:station:USF.COMPS:C10:1,2019-09-04T11:35:00,27.1690,-82.9260,3.0,7.89,319.44,9.68,'11111222,11111222,11111222' 
COMPS,ioos:station:USF.COMPS:C10:1,2019-09-04T12:35:00,27.1690,-82.9260,3.0,8.31,310.91,10.11,'11111222,11111222,11111222' 
COMPS,ioos:station:USF.COMPS:C10:1,2019-09-04T13:35:00,27.1690,-82.9260,3.0,8.22,315.52,10.12,'11111222,11111222,11111222' 
COMPS,ioos:station:USF.COMPS:C10:1,2019-09-04T14:35:00,27.1690,-82.9260,3.0,7.97,312.37,9.68,'11111222,11111222,11111222' 
COMPS,ioos:station:USF.COMPS:C10:1,2019-09-04T15:35:00,27.1690,-82.9260,3.0,8.8,312.59,11.04,'11111222,11111222,11111222' 
COMPS,ioos:station:USF.COMPS:C10:1,2019-09-04T16:35:00,27.1690,-82.9260,3.0,8.8,307.24,10.39,'11111222,11111222,11111222' 
COMPS,ioos:station:USF.COMPS:C10:1,2019-09-04T17:35:00,27.1690,-82.9260,3.0,8.25,306.43,10.66,'11111222,11111222,11111222' 
COMPS,ioos:station:USF.COMPS:C10:1,2019-09-04T18:35:00,27.1690,-82.9260,3.0,8.38,295.91,9.85,'11111222,11111222,11111222' 
COMPS,ioos:station:USF.COMPS:C10:1,2019-09-04T19:35:00,27.1690,-82.9260,3.0,8.35,297.7,10.33,'11111222,11111222,11111222' 
COMPS,ioos:station:USF.COMPS:C10:1,2019-09-04T20:35:00,27.1690,-82.9260,3.0,8.44,296.44,10.4,'11111222,11111222,11111222' 
COMPS,ioos:station:USF.COMPS:C10:1,2019-09-04T21:35:00,27.1690,-82.9260,3.0,8.06,296.05,9.58,'11111222,11111222,11111222' 
COMPS,ioos:station:USF.COMPS:C10:1,2019-09-04T22:35:00,27.1690,-82.9260,3.0,7.86,291.51,9.61,'11111222,11111222,11111222' 
COMPS,ioos:station:USF.COMPS:C10:1,2019-09-04T23:35:00,27.1690,-82.9260,3.0,7.99,298.44,9.62,'11111222,11111222,11111222' 
COMPS,ioos:station:USF.COMPS:C10:1,2019-09-05T00:35:00,27.1690,-82.9260,3.0,6.75,297.88,8.24,'11111222,11111222,11111222' 
COMPS,ioos:station:USF.COMPS:C10:1,2019-09-05T01:35:00,27.1690,-82.9260,3.0,6.66,290.69,8.22,'11111222,11111222,11111222' 
COMPS,ioos:station:USF.COMPS:C10:1,2019-09-05T02:35:00,27.1690,-82.9260,3.0,6.81,286.75,8.37,'11111222,11111222,11111222' 
COMPS,ioos:station:USF.COMPS:C10:1,2019-09-05T03:35:00,27.1690,-82.9260,3.0,6.89,275.85,8.6,'11111222,11111222,11111222' 
COMPS,ioos:station:USF.COMPS:C10:1,2019-09-05T04:35:00,27.1690,-82.9260,3.0,6.76,268.81,8.24,'11111222,11111222,11111222' 
COMPS,ioos:station:USF.COMPS:C10:1,2019-09-05T05:35:00,27.1690,-82.9260,3.0,6.95,267.68,8.28,'11111222,11111222,11111222' 
COMPS,ioos:station:USF.COMPS:C10:1,2019-09-05T06:35:00,27.1690,-82.9260,3.0,7.26,271.02,9.09,'11111222,11111222,11111222' 
COMPS,ioos:station:USF.COMPS:C10:1,2019-09-05T07:35:00,27.1690,-82.9260,3.0,7.55,275.94,9.23,'11111222,11111222,11111222' 
COMPS,ioos:station:USF.COMPS:C10:1,2019-09-05T08:35:00,27.1690,-82.9260,3.0,7.34,268.87,9.27,'11111222,11111222,11111222' 
COMPS,ioos:station:USF.COMPS:C10:1,2019-09-05T09:35:00,27.1690,-82.9260,3.0,7.77,268.52,9.39,'11111222,11111222,11111222' 
COMPS,ioos:station:USF.COMPS:C10:1,2019-09-05T10:35:00,27.1690,-82.9260,3.0,8.2,270.39,9.82,'11111222,11111222,11111222' 
COMPS,ioos:station:USF.COMPS:C10:1,2019-09-05T11:35:00,27.1690,-82.9260,3.0,7.51,275.56,9.06,'11111222,11111222,11111222' 
COMPS,ioos:station:USF.COMPS:C10:1,2019-09-05T12:35:00,27.1690,-82.9260,3.0,7.93,279.23,9.81,'11111222,11111222,11111222' 
COMPS,ioos:station:USF.COMPS:C10:1,2019-09-05T13:35:00,27.1690,-82.9260,3.0,7.83,271.63,9.91,'11111222,11111222,11111222' 
COMPS,ioos:station:USF.COMPS:C10:1,2019-09-05T14:35:00,27.1690,-82.9260,3.0,7.53,273.72,9.18,'11111222,11111222,11111222' 
COMPS,ioos:station:USF.COMPS:C10:1,2019-09-05T15:35:00,27.1690,-82.9260,3.0,7.23,273.62,8.95,'11111222,11111222,11111222' 
COMPS,ioos:station:USF.COMPS:C10:1,2019-09-05T16:35:00,27.1690,-82.9260,3.0,7.0,267.42,8.56,'11111222,11111222,11111222' 
COMPS,ioos:station:USF.COMPS:C10:1,2019-09-05T17:35:00,27.1690,-82.9260,3.0,7.16,268.82,8.47,'11111222,11111222,11111222' 
COMPS,ioos:station:USF.COMPS:C10:1,2019-09-05T18:35:00,27.1690,-82.9260,3.0,6.96,269.55,8.28,'11111222,11111222,11111222' 
COMPS,ioos:station:USF.COMPS:C10:1,2019-09-05T19:35:00,27.1690,-82.9260,3.0,7.4,263.09,8.77,'11111222,11111222,11111222' 
COMPS,ioos:station:USF.COMPS:C10:1,2019-09-05T20:35:00,27.1690,-82.9260,3.0,7.57,264.0,9.28,'11111222,11111222,11111222' 
COMPS,ioos:station:USF.COMPS:C10:1,2019-09-05T21:35:00,27.1690,-82.9260,3.0,7.43,266.83,9.0,'11111222,11111222,11111222' 
COMPS,ioos:station:USF.COMPS:C10:1,2019-09-05T22:35:00,27.1690,-82.9260,3.0,7.1,273.24,8.45,'11111222,11111222,11111222' 
COMPS,ioos:station:USF.COMPS:C10:1,2019-09-05T23:35:00,27.1690,-82.9260,3.0,7.05,271.91,8.31,'11111222,11111222,11111222' 
COMPS,ioos:station:USF.COMPS:C10:1,2019-09-06T00:35:00,27.1690,-82.9260,3.0,6.89,271.76,8.13,'11111222,11111222,11111222' 
COMPS,ioos:station:USF.COMPS:C10:1,2019-09-06T01:35:00,27.1690,-82.9260,3.0,6.76,261.34,8.05,'11111222,11111222,11111222' 
COMPS,ioos:station:USF.COMPS:C10:1,2019-09-06T02:35:00,27.1690,-82.9260,3.0,7.22,262.94,8.8,'11111222,11111222,11111222' 
COMPS,ioos:station:USF.COMPS:C10:1,2019-09-06T03:35:00,27.1690,-82.9260,3.0,7.12,261.73,8.8,'11111222,11111222,11111222' 
COMPS,ioos:station:USF.COMPS:C10:1,2019-09-06T04:35:00,27.1690,-82.9260,3.0,7.21,262.77,9.19,'11111222,11111222,11111222' 
COMPS,ioos:station:USF.COMPS:C10:1,2019-09-06T06:35:00,27.1690,-82.9260,3.0,8.17,275.5,9.58,'11111222,11111222,11111222' 
COMPS,ioos:station:USF.COMPS:C10:1,2019-09-06T07:35:00,27.1690,-82.9260,3.0,8.03,277.11,9.67,'11111222,11111222,11111222' 
COMPS,ioos:station:USF.COMPS:C10:1,2019-09-06T08:35:00,27.1690,-82.9260,3.0,7.77,271.93,9.56,'11111222,11111222,11111222' 
COMPS,ioos:station:USF.COMPS:C10:1,2019-09-06T09:35:00,27.1690,-82.9260,3.0,7.96,272.56,9.8,'11111222,11111222,11111222' 
COMPS,ioos:station:USF.COMPS:C10:1,2019-09-06T10:35:00,27.1690,-82.9260,3.0,8.02,269.9,10.01,'11111222,11111222,11111222' 
COMPS,ioos:station:USF.COMPS:C10:1,2019-09-06T11:35:00,27.1690,-82.9260,3.0,7.7,269.56,9.45,'11111222,11111222,11111222' 
COMPS,ioos:station:USF.COMPS:C10:1,2019-09-06T12:35:00,27.1690,-82.9260,3.0,7.61,275.21,8.92,'11111222,11111222,11111222' 
COMPS,ioos:station:USF.COMPS:C10:1,2019-09-06T13:35:00,27.1690,-82.9260,3.0,6.91,273.47,8.34,'11111222,11111222,11111222' 
COMPS,ioos:station:USF.COMPS:C10:1,2019-09-06T14:35:00,27.1690,-82.9260,3.0,6.9,276.92,8.24,'11111222,11111222,11111222' 
COMPS,ioos:station:USF.COMPS:C10:1,2019-09-06T15:35:00,27.1690,-82.9260,3.0,6.63,280.31,8.3,'11111222,11111222,11111222' 
COMPS,ioos:station:USF.COMPS:C10:1,2019-09-06T16:35:00,27.1690,-82.9260,3.0,6.15,276.47,7.61,'11111222,11111222,11111222' 
COMPS,ioos:station:USF.COMPS:C10:1,2019-09-06T17:35:00,27.1690,-82.9260,3.0,6.08,272.34,7.46,'11111222,11111222,11111222' 
COMPS,ioos:station:USF.COMPS:C10:1,2019-09-06T18:35:00,27.1690,-82.9260,3.0,6.11,254.21,7.68,'11111222,11111222,11111222' 
COMPS,ioos:station:USF.COMPS:C10:1,2019-09-06T19:35:00,27.1690,-82.9260,3.0,6.45,258.75,7.65,'11111222,11111222,11111222' 
COMPS,ioos:station:USF.COMPS:C10:1,2019-09-06T20:35:00,27.1690,-82.9260,3.0,6.67,255.62,7.8,'11111222,11111222,11111222' 
COMPS,ioos:station:USF.COMPS:C10:1,2019-09-06T21:35:00,27.1690,-82.9260,3.0,6.63,254.35,8.0,'11111222,11111222,11111222' 
COMPS,ioos:station:USF.COMPS:C10:1,2019-09-06T22:35:00,27.1690,-82.9260,3.0,7.11,262.1,8.58,'11111222,11111222,11111222' 
COMPS,ioos:station:USF.COMPS:C10:1,2019-09-06T23:35:00,27.1690,-82.9260,3.0,7.15,255.31,9.23,'11111222,11111222,11111222' 
COMPS,ioos:station:USF.COMPS:C10:1,2019-09-07T00:35:00,27.1690,-82.9260,3.0,5.45,171.21,6.88,'11111222,11111222,11111222' 
COMPS,ioos:station:USF.COMPS:C10:1,2019-09-07T01:35:00,27.1690,-82.9260,3.0,5.22,170.73,6.86,'11111222,11111222,11111222' 
COMPS,ioos:station:USF.COMPS:C10:1,2019-09-07T02:35:00,27.1690,-82.9260,3.0,5.7,176.63,7.03,'11111222,11111222,11111222' 
COMPS,ioos:station:USF.COMPS:C10:1,2019-09-07T03:35:00,27.1690,-82.9260,3.0,4.98,178.88,5.92,'11111222,11111222,11111222' 
COMPS,ioos:station:USF.COMPS:C10:1,2019-09-07T04:35:00,27.1690,-82.9260,3.0,5.01,177.78,6.19,'11111222,11111222,11111222' 
COMPS,ioos:station:USF.COMPS:C10:1,2019-09-07T05:35:00,27.1690,-82.9260,3.0,5.07,182.54,6.52,'11111222,11111222,11111222' 
COMPS,ioos:station:USF.COMPS:C10:1,2019-09-07T06:35:00,27.1690,-82.9260,3.0,4.22,182.28,5.61,'11111222,11111222,11111222' 
COMPS,ioos:station:USF.COMPS:C10:1,2019-09-07T07:35:00,27.1690,-82.9260,3.0,4.23,181.92,5.59,'11111222,11111222,11111222' 
COMPS,ioos:station:USF.COMPS:C10:1,2019-09-07T08:35:00,27.1690,-82.9260,3.0,4.66,177.09,6.29,'11111222,11111222,11111222' 
COMPS,ioos:station:USF.COMPS:C10:1,2019-09-07T09:35:00,27.1690,-82.9260,3.0,3.16,195.04,4.6,'11111222,11111222,11111222' 
COMPS,ioos:station:USF.COMPS:C10:1,2019-09-07T10:35:00,27.1690,-82.9260,3.0,3.03,195.13,4.25,'11111222,11111222,11111222' 
COMPS,ioos:station:USF.COMPS:C10:1,2019-09-07T11:35:00,27.1690,-82.9260,3.0,3.31,180.28,4.89,'11111222,11111222,11111222' 
COMPS,ioos:station:USF.COMPS:C10:1,2019-09-07T12:35:00,27.1690,-82.9260,3.0,2.44,166.6,4.24,'11111222,11111222,11111222' 
COMPS,ioos:station:USF.COMPS:C10:1,2019-09-07T13:35:00,27.1690,-82.9260,3.0,1.3,168.31,2.9,'11111222,11111222,11111222' 
COMPS,ioos:station:USF.COMPS:C10:1,2019-09-07T14:35:00,27.1690,-82.9260,3.0,0.64,319.62,1.3,'11111222,11111222,11111222' 
COMPS,ioos:station:USF.COMPS:C10:1,2019-09-07T15:35:00,27.1690,-82.9260,3.0,1.07,100.43,1.84,'11111222,11111222,11111222' 
COMPS,ioos:station:USF.COMPS:C10:1,2019-09-07T16:35:00,27.1690,-82.9260,3.0,1.93,149.5,2.91,'11111222,11111222,11111222' 
COMPS,ioos:station:USF.COMPS:C10:1,2019-09-07T17:35:00,27.1690,-82.9260,3.0,2.26,166.21,3.16,'11111222,11111222,11111222' 
COMPS,ioos:station:USF.COMPS:C10:1,2019-09-07T18:35:00,27.1690,-82.9260,3.0,2.47,197.33,3.49,'11111222,11111222,11111222' 
COMPS,ioos:station:USF.COMPS:C10:1,2019-09-07T19:35:00,27.1690,-82.9260,3.0,2.04,199.61,3.31,'11111222,11111222,11111222' 
COMPS,ioos:station:USF.COMPS:C10:1,2019-09-07T20:35:00,27.1690,-82.9260,3.0,1.2,213.32,2.22,'11111222,11111222,11111222' 
COMPS,ioos:station:USF.COMPS:C10:1,2019-09-07T22:35:00,27.1690,-82.9260,3.0,2.85,212.4,4.24,'11111222,11111222,11111222' 
COMPS,ioos:station:USF.COMPS:C10:1,2019-09-07T23:35:00,27.1690,-82.9260,3.0,3.42,205.6,4.49,'11111222,11111222,11111222' 
COMPS,ioos:station:USF.COMPS:C10:1,2019-09-08T01:35:00,27.1690,-82.9260,3.0,3.19,207.4,4.22,'11111222,11111222,11111222' 
COMPS,ioos:station:USF.COMPS:C10:1,2019-09-08T02:35:00,27.1690,-82.9260,3.0,3.15,211.54,4.53,'11111222,11111222,11111222' 
COMPS,ioos:station:USF.COMPS:C10:1,2019-09-08T03:35:00,27.1690,-82.9260,3.0,2.77,205.17,3.54,'11111222,11111222,11111222' 
COMPS,ioos:station:USF.COMPS:C10:1,2019-09-08T04:35:00,27.1690,-82.9260,3.0,1.37,189.66,1.96,'11111222,11111222,11111222' 
COMPS,ioos:station:USF.COMPS:C10:1,2019-09-08T05:35:00,27.1690,-82.9260,3.0,1.07,219.96,1.71,'11111222,11111222,11111222' 
COMPS,ioos:station:USF.COMPS:C10:1,2019-09-08T06:35:00,27.1690,-82.9260,3.0,1.01,172.14,1.79,'11111222,11111222,11111222' 
COMPS,ioos:station:USF.COMPS:C10:1,2019-09-08T07:35:00,27.1690,-82.9260,3.0,1.1,241.18,1.82,'11111222,11111222,11111222' 
COMPS,ioos:station:USF.COMPS:C10:1,2019-09-08T08:35:00,27.1690,-82.9260,3.0,0.82,254.67,1.53,'11111222,11111222,11111222' 
COMPS,ioos:station:USF.COMPS:C10:1,2019-09-08T09:35:00,27.1690,-82.9260,3.0,0.83,151.88,1.51,'11111222,11111222,11111222' 
COMPS,ioos:station:USF.COMPS:C10:1,2019-09-08T10:35:00,27.1690,-82.9260,3.0,1.27,208.56,1.82,'11111222,11111222,11111222' 
COMPS,ioos:station:USF.COMPS:C10:1,2019-09-08T11:35:00,27.1690,-82.9260,3.0,0.76,129.68,1.38,'11111222,11111222,11111222' 
COMPS,ioos:station:USF.COMPS:C10:1,2019-09-08T12:35:00,27.1690,-82.9260,3.0,3.11,155.67,4.37,'11111222,11111222,11111222' 
COMPS,ioos:station:USF.COMPS:C10:1,2019-09-08T13:35:00,27.1690,-82.9260,3.0,2.52,172.32,3.47,'11111222,11111222,11111222' 
COMPS,ioos:station:USF.COMPS:C10:1,2019-09-08T14:35:00,27.1690,-82.9260,3.0,2.43,229.68,3.79,'11111222,11111222,11111222' 
COMPS,ioos:station:USF.COMPS:C10:1,2019-09-08T15:35:00,27.1690,-82.9260,3.0,1.38,277.14,1.95,'11111222,11111222,11111222' 
COMPS,ioos:station:USF.COMPS:C10:1,2019-09-08T16:35:00,27.1690,-82.9260,3.0,1.39,259.75,2.0,'11111222,11111222,11111222' 
COMPS,ioos:station:USF.COMPS:C10:1,2019-09-08T17:35:00,27.1690,-82.9260,3.0,0.68,157.06,1.44,'11111222,11111222,11111222' 
COMPS,ioos:station:USF.COMPS:C10:1,2019-09-08T18:35:00,27.1690,-82.9260,3.0,1.16,248.54,2.11,'11111222,11111222,11111222' 
COMPS,ioos:station:USF.COMPS:C10:1,2019-09-08T19:35:00,27.1690,-82.9260,3.0,1.66,205.73,2.6,'11111222,11111222,11111222' 
COMPS,ioos:station:USF.COMPS:C10:1,2019-09-08T20:35:00,27.1690,-82.9260,3.0,1.65,184.64,3.09,'11111222,11111222,11111222' 
COMPS,ioos:station:USF.COMPS:C10:1,2019-09-08T21:35:00,27.1690,-82.9260,3.0,1.93,166.94,2.78,'11111222,11111222,11111222' 
COMPS,ioos:station:USF.COMPS:C10:1,2019-09-08T22:35:00,27.1690,-82.9260,3.0,1.76,165.56,2.55,'11111222,11111222,11111222' 
COMPS,ioos:station:USF.COMPS:C10:1,2019-09-08T23:35:00,27.1690,-82.9260,3.0,1.43,158.0,1.93,'11111222,11111222,11111222' 
COMPS,ioos:station:USF.COMPS:C10:1,2019-09-09T00:35:00,27.1690,-82.9260,3.0,1.07,198.71,1.91,'11111222,11111222,11111222' 
COMPS,ioos:station:USF.COMPS:C10:1,2019-09-09T01:05:00,27.1690,-82.9260,3.0,1.0,180.77,1.6,'11111222,11111222,11111222' 
COMPS,ioos:station:USF.COMPS:C10:1,2019-09-09T02:35:00,27.1690,-82.9260,3.0,0.82,123.96,1.44,'11111222,11111222,11111222' 
COMPS,ioos:station:USF.COMPS:C10:1,2019-09-09T03:35:00,27.1690,-82.9260,3.0,0.42,281.27,1.03,'11111222,11111222,11111222' 
COMPS,ioos:station:USF.COMPS:C10:1,2019-09-09T04:35:00,27.1690,-82.9260,3.0,1.04,280.23,1.89,'11111222,11111222,11111222' 
COMPS,ioos:station:USF.COMPS:C10:1,2019-09-09T05:35:00,27.1690,-82.9260,3.0,0.99,271.78,1.51,'11111222,11111222,11111222' 
COMPS,ioos:station:USF.COMPS:C10:1,2019-09-09T06:35:00,27.1690,-82.9260,3.0,1.31,256.19,2.04,'11111222,11111222,11111222' 
COMPS,ioos:station:USF.COMPS:C10:1,2019-09-09T07:35:00,27.1690,-82.9260,3.0,1.49,253.53,1.95,'11111222,11111222,11111222' 
COMPS,ioos:station:USF.COMPS:C10:1,2019-09-09T08:35:00,27.1690,-82.9260,3.0,2.06,220.06,2.93,'11111222,11111222,11111222' 
COMPS,ioos:station:USF.COMPS:C10:1,2019-09-09T09:35:00,27.1690,-82.9260,3.0,3.68,235.46,4.51,'11111222,11111222,11111222' 
COMPS,ioos:station:USF.COMPS:C10:1,2019-09-09T10:35:00,27.1690,-82.9260,3.0,3.31,216.86,4.09,'11111222,11111222,11111222' 
COMPS,ioos:station:USF.COMPS:C10:1,2019-09-09T12:35:00,27.1690,-82.9260,3.0,3.52,207.55,4.5,'11111222,11111222,11111222' 
COMPS,ioos:station:USF.COMPS:C10:1,2019-09-09T13:35:00,27.1690,-82.9260,3.0,3.66,187.54,4.75,'11111222,11111222,11111222' 
COMPS,ioos:station:USF.COMPS:C10:1,2019-09-09T14:35:00,27.1690,-82.9260,3.0,3.85,194.54,4.58,'11111222,11111222,11111222' 
COMPS,ioos:station:USF.COMPS:C10:1,2019-09-09T15:35:00,27.1690,-82.9260,3.0,3.33,196.05,4.07,'11111222,11111222,11111222' 
COMPS,ioos:station:USF.COMPS:C10:1,2019-09-09T16:35:00,27.1690,-82.9260,3.0,3.6,201.77,4.7,'11111222,11111222,11111222' 
COMPS,ioos:station:USF.COMPS:C10:1,2019-09-09T17:35:00,27.1690,-82.9260,3.0,2.08,179.34,2.85,'11111222,11111222,11111222' 
COMPS,ioos:station:USF.COMPS:C10:1,2019-09-09T21:35:00,27.1690,-82.9260,3.0,2.4,220.24,3.1,'11111222,11111222,11111222' 
COMPS,ioos:station:USF.COMPS:C10:1,2019-09-09T22:35:00,27.1690,-82.9260,3.0,2.16,239.24,2.91,'11111222,11111222,11111222' 
COMPS,ioos:station:USF.COMPS:C10:1,2019-09-09T23:35:00,27.1690,-82.9260,3.0,1.36,259.53,2.03,'11111222,11111222,11111222' 
COMPS,ioos:station:USF.COMPS:C10:1,2019-09-10T00:35:00,27.1690,-82.9260,3.0,1.77,277.1,2.83,'11111222,11111222,11111222' 
COMPS,ioos:station:USF.COMPS:C10:1,2019-09-10T01:35:00,27.1690,-82.9260,3.0,3.99,247.68,5.28,'11111222,11111222,11111222' 
COMPS,ioos:station:USF.COMPS:C10:1,2019-09-10T03:35:00,27.1690,-82.9260,3.0,2.25,211.66,3.12,'11111222,11111222,11111222' 
COMPS,ioos:station:USF.COMPS:C10:1,2019-09-10T04:35:00,27.1690,-82.9260,3.0,5.61,243.47,7.6,'11111222,11111222,11111222' 
COMPS,ioos:station:USF.COMPS:C10:1,2019-09-10T05:35:00,27.1690,-82.9260,3.0,4.43,216.8,5.67,'11111222,11111222,11111222' 
COMPS,ioos:station:USF.COMPS:C10:1,2019-09-10T06:35:00,27.1690,-82.9260,3.0,4.55,198.35,5.53,'11111222,11111222,11111222' 
COMPS,ioos:station:USF.COMPS:C10:1,2019-09-10T07:35:00,27.1690,-82.9260,3.0,5.83,205.27,6.89,'11111222,11111222,11111222' 
COMPS,ioos:station:USF.COMPS:C10:1,2019-09-10T08:35:00,27.1690,-82.9260,3.0,5.97,211.04,7.89,'11111222,11111222,11111222' 
COMPS,ioos:station:USF.COMPS:C10:1,2019-09-10T09:35:00,27.1690,-82.9260,3.0,6.67,201.5,7.95,'11111222,11111222,11111222' 
COMPS,ioos:station:USF.COMPS:C10:1,2019-09-10T10:35:00,27.1690,-82.9260,3.0,6.7,208.5,8.09,'11111222,11111222,11111222' 
COMPS,ioos:station:USF.COMPS:C10:1,2019-09-10T13:35:00,27.1690,-82.9260,3.0,6.67,210.62,8.3,'11111222,11111222,11111222' 
COMPS,ioos:station:USF.COMPS:C10:1,2019-09-10T14:35:00,27.1690,-82.9260,3.0,6.26,214.16,7.81,'11111222,11111222,11111222' 
COMPS,ioos:station:USF.COMPS:C10:1,2019-09-10T17:35:00,27.1690,-82.9260,3.0,5.17,210.33,6.38,'11111222,11111222,11111222' 
COMPS,ioos:station:USF.COMPS:C10:1,2019-09-10T18:35:00,27.1690,-82.9260,3.0,3.07,205.48,4.01,'11111222,11111222,11111222' 
COMPS,ioos:station:USF.COMPS:C10:1,2019-09-10T19:35:00,27.1690,-82.9260,3.0,1.77,195.68,2.51,'11111222,11111222,11111222' 